DW9005 Weather Reports


Display with metric or nautical units.
time (UTC)temp
F
wind
direction
speed
MPH
gust
MPH
rain 1hr
in
rain 24hr
in
rain mn
in
humidity
%
barometer
mb
20260904061524 77 0.0 0.0 0.00 0.00 0.00 93 1014.8
20260904060025 77 0.0 0.0 0.00 0.00 0.00 93 1014.7
20260904054506 77 0.0 0.0 0.00 0.00 0.00 93 1014.8
20260904053007 78 0.0 0.0 0.00 0.00 0.00 93 1014.9
20260904051548 78 0.0 0.0 0.00 0.00 0.00 93 1014.9
20260904050051 78 0.0 0.0 0.00 0.00 0.00 93 1014.7
20260904044529 78 0.0 0.0 0.00 0.00 0.00 92 1014.8
20260904043028 78 0.0 0.0 0.00 0.00 0.00 92 1014.8
20260904041519 79 0.0 0.0 0.00 0.00 0.00 92 1014.8
20260904040010 79 0.0 0.0 0.00 0.00 0.00 91 1014.9
20260904034553 79 0.0 0.0 0.00 0.00 0.00 91 1015.0
20260904033058 79 0.0 0.0 0.00 0.00 0.00 90 1015.0
20260904031539 80 0.0 0.0 0.00 0.00 0.00 90 1015.0
20260904030037 80 0.0 0.0 0.00 0.00 0.00 89 1015.1
20260904024522 80 0.0 0.0 0.00 0.00 0.00 89 1015.2
20260904023018 81 0.0 0.0 0.00 0.00 0.00 87 1015.2
20260904021602 81 0.0 0.0 0.00 0.00 0.00 87 1015.1
20260904020058 82 0.0 0.0 0.00 0.00 0.00 86 1014.9
20260904014546 82 0.0 0.0 0.00 0.00 0.00 85 1014.7
20260904013045 83 0.0 0.0 0.00 0.00 0.00 83 1014.7
20260904011544 83 0.0 0.0 0.00 0.00 0.00 82 1014.4
20260904010044 84 0.0 0.0 0.00 0.00 0.00 80 1014.4
20260904004544 85 0.0 0.0 0.00 0.00 0.00 78 1014.2
20260904003043 86 0.0 0.0 0.00 0.00 0.00 76 1014.2
20260904001543 87 0.0 0.0 0.00 0.00 0.00 72 1014.1
20260904000042 88 0.0 0.0 0.00 0.00 0.00 71 1014.0
20260903234524 89 0.0 0.0 0.00 0.00 0.00 68 1013.8
20260903233030 90 0.0 0.0 0.00 0.00 0.00 66 1013.7
20260903231507 91 0.0 0.0 0.00 0.00 0.00 67 1013.7
20260903230010 91 0.0 0.0 0.00 0.00 0.00 67 1013.7
20260903224549 93 0.0 0.0 0.00 0.00 0.00 63 1013.6
20260903223048 93 0.0 0.0 0.00 0.00 0.00 61 1013.6
20260903221545 94 0.0 0.0 0.00 0.00 0.00 60 1013.4
20260903220030 95 0.0 0.0 0.00 0.00 0.00 58 1013.3
20260903214512 97 0.0 0.0 0.00 0.00 0.00 51 1013.1
20260903213019 97 0.0 0.0 0.00 0.00 0.00 51 1013.3
20260903211553 97 0.0 0.0 0.00 0.00 0.00 51 1013.3
20260903210054 97 0.0 0.0 0.00 0.00 0.00 53 1013.5
20260903204535 97 0.0 0.0 0.00 0.00 0.00 53 1013.4
20260903203045 97 0.0 0.0 0.00 0.00 0.00 52 1013.7
20260903201513 98 0.0 0.0 0.00 0.00 0.00 50 1013.9
20260903200020 98 0.0 0.0 0.00 0.00 0.00 51 1014.1
20260903194551 98 0.0 0.0 0.00 0.00 0.00 51 1014.4
20260903193049 97 0.0 0.0 0.00 0.00 0.00 52 1014.7
20260903191533 97 0.0 0.0 0.00 0.00 0.00 51 1014.8
20260903190028 96 0.0 0.0 0.00 0.00 0.00 53 1015.0
20260903184509 96 0.0 0.0 0.00 0.00 0.00 53 1015.2
20260903183008 96 0.0 0.0 0.00 0.00 0.00 53 1015.3
20260903181549 96 0.0 0.0 0.00 0.00 0.00 53 1015.6
20260903180109 95 0.0 0.0 0.00 0.00 0.00 55 1015.8
20260903174526 94 0.0 0.0 0.00 0.00 0.00 54 1016.0
20260903173024 92 0.0 0.0 0.00 0.00 0.00 66 1016.2
20260903171505 92 0.0 0.0 0.00 0.00 0.00 64 1016.4
20260903170004 93 0.0 0.0 0.00 0.00 0.00 63 1016.6
20260903164547 92 0.0 0.0 0.00 0.00 0.00 64 1016.7
20260903163045 0 0.0 0.0 0.00 0.00 0.00 1017.0
20260903161520 0 0.0 0.0 0.00 0.00 0.00 1017.2
20260903160016 0 0.0 0.0 0.00 0.00 0.00 1017.2
20260903154611 0 0.0 0.0 0.00 0.00 0.00 1017.4
20260903153049 0 0.0 0.0 0.00 0.00 0.00 1017.4
20260903151550 0 0.0 0.0 0.00 0.00 0.00 1017.3
20260903150023 0 0.0 0.0 0.00 0.00 0.00 1017.1
20260903144520 0 0.0 0.0 0.00 0.00 0.00 1017.1
20260903143058 0 0.0 0.0 0.00 0.00 0.00 1017.0
20260903141554 0 0.0 0.0 0.00 0.00 0.00 1016.9
20260903140031 0 0.0 0.0 0.00 0.00 0.00 1017.0
20260903134527 0 0.0 0.0 0.00 0.00 0.00 1016.9
20260903133008 78 0.0 0.0 0.00 0.00 0.00 91 1017.0
20260903131505 77 0.0 0.0 0.00 0.00 0.00 93 1017.0
20260903130108 76 0.0 0.0 0.00 0.00 0.00 94 1017.0
20260903124543 75 0.0 0.0 0.00 0.00 0.00 95 1016.9
20260903123025 75 0.0 0.0 0.00 0.00 0.00 95 1016.9
20260903121524 74 0.0 0.0 0.00 0.00 0.00 95 1016.9
20260903120005 74 0.0 0.0 0.00 0.00 0.00 95 1016.7
20260903114505 74 0.0 0.0 0.00 0.00 0.00 95 1016.5
20260903113047 74 0.0 0.0 0.00 0.00 0.00 95 1016.6
20260903111545 74 0.0 0.0 0.00 0.00 0.00 95 1016.4
20260903110104 74 0.0 0.0 0.00 0.00 0.00 95 1016.3
20260903104527 74 0.0 0.0 0.00 0.00 0.00 95 1016.1
20260903103008 74 0.0 0.0 0.00 0.00 0.00 95 1016.1
20260903101508 74 0.0 0.0 0.00 0.00 0.00 95 1016.1
20260903100049 74 0.0 0.0 0.00 0.00 0.00 95 1016.1
20260903094554 75 0.0 0.0 0.00 0.00 0.00 95 1016.1
20260903093033 75 0.0 0.0 0.00 0.00 0.00 95 1016.1
20260903091528 75 0.0 0.0 0.00 0.00 0.00 94 1016.0
20260903090009 75 0.0 0.0 0.00 0.00 0.00 94 1015.9
20260903084508 75 0.0 0.0 0.00 0.00 0.00 94 1015.9
20260903083049 75 0.0 0.0 0.00 0.00 0.00 95 1016.0
20260903081549 75 0.0 0.0 0.00 0.00 0.00 94 1015.9
20260903080029 76 0.0 0.0 0.00 0.00 0.00 94 1015.7
20260903074528 76 0.0 0.0 0.00 0.00 0.00 94 1015.8
20260903073011 76 0.0 0.0 0.00 0.00 0.00 94 1016.0
20260903071509 76 0.0 0.0 0.00 0.00 0.00 94 1016.0
20260903070050 76 0.0 0.0 0.00 0.00 0.00 94 1016.0
20260903064551 76 0.0 0.0 0.00 0.00 0.00 94 1016.0
20260903063036 76 0.0 0.0 0.00 0.00 0.00 94 1016.1